Location: Fort Worth, Tx
(32.7431°N, 97.3695°W)
Time: 23:07:18
(UTC-04:00)

Envisat - Pass Details

Date: 06 June 2023
Orbit: 763 x 764 km, 98.2° (Epoch: 02 October)

Event Time Altitude Azimuth Distance (km) Brightness Sun altitude
Rises 06:37:16 0° 6° (N) 3,230 6.9 -8.8°
Reaches altitude 10° 06:39:37 10° 2° (N) 2,301 6.0 -8.4°
Maximum altitude 06:44:32 54° 286° (WNW) 921 3.2 -7.5°
Drops below altitude 10° 06:49:27 10° 210° (SSW) 2,289 4.9 -6.6°
Enters shadow 06:51:06 - 206° (SSW) 2,940 5.5 -6.4°
